TimeMDT,TemperatureF,Dew PointF,Humidity,Sea Level PressureIn,VisibilityMPH,Wind Direction,Wind SpeedMPH,Gust SpeedMPH,PrecipitationIn,Events,Conditions,WindDirDegrees,DateUTC
12:53 AM,53.6,39.2,58,30.01,10.0,SSW,4.6,-,N/A,,Clear,210,2011-10-03 06:53:00
1:53 AM,48.9,39.0,69,30.02,10.0,WNW,3.5,-,N/A,,Clear,300,2011-10-03 07:53:00
2:53 AM,48.9,37.0,64,30.02,10.0,West,6.9,-,N/A,,Clear,260,2011-10-03 08:53:00
3:53 AM,46.9,37.9,71,30.02,10.0,Calm,Calm,-,N/A,,Clear,0,2011-10-03 09:53:00
4:53 AM,46.9,37.9,71,30.03,10.0,Calm,Calm,-,N/A,,Clear,0,2011-10-03 10:53:00
5:53 AM,45.0,37.9,76,30.03,10.0,Calm,Calm,-,N/A,,Clear,0,2011-10-03 11:53:00
6:53 AM,43.0,37.0,80,30.05,10.0,Calm,Calm,-,N/A,,Clear,0,2011-10-03 12:53:00
7:53 AM,43.0,36.0,76,30.06,10.0,West,4.6,-,N/A,,Clear,280,2011-10-03 13:53:00
8:53 AM,48.9,37.9,66,30.04,10.0,Calm,Calm,-,N/A,,Clear,0,2011-10-03 14:53:00
9:53 AM,51.1,39.0,63,30.05,10.0,Calm,Calm,-,N/A,,Clear,0,2011-10-03 15:53:00
10:53 AM,57.0,39.0,51,30.02,10.0,Calm,Calm,-,N/A,,Clear,0,2011-10-03 16:53:00
11:53 AM,63.0,39.9,43,29.98,10.0,Calm,Calm,-,N/A,,Clear,0,2011-10-03 17:53:00
12:53 PM,66.9,39.9,37,29.93,10.0,North,3.5,-,N/A,,Clear,10,2011-10-03 18:53:00
1:53 PM,72.0,39.9,31,29.88,10.0,Calm,Calm,-,N/A,,Clear,0,2011-10-03 19:53:00
2:53 PM,84.0,34.0,17,29.82,10.0,SSE,16.1,24.2,N/A,,Clear,160,2011-10-03 20:53:00
3:53 PM,84.0,34.0,17,29.80,10.0,SSW,18.4,24.2,N/A,,Clear,200,2011-10-03 21:53:00
4:53 PM,84.0,33.1,16,29.77,10.0,South,10.4,23.0,N/A,,Clear,190,2011-10-03 22:53:00
5:53 PM,82.9,30.9,15,29.76,10.0,South,13.8,23.0,N/A,,Clear,180,2011-10-03 23:53:00
6:53 PM,80.6,32.0,17,29.78,10.0,South,16.1,24.2,N/A,,Clear,190,2011-10-04 00:53:00
7:53 PM,77.0,35.1,22,29.77,10.0,South,12.7,19.6,N/A,,Clear,170,2011-10-04 01:53:00
8:53 PM,75.0,36.0,24,29.75,10.0,South,13.8,20.7,N/A,,Clear,170,2011-10-04 02:53:00
9:53 PM,73.9,36.0,25,29.74,10.0,South,11.5,-,N/A,,Clear,170,2011-10-04 03:53:00
10:53 PM,73.0,36.0,26,29.73,10.0,South,11.5,19.6,N/A,,Clear,190,2011-10-04 04:53:00
11:53 PM,64.9,36.0,34,29.75,10.0,SSE,4.6,-,N/A,,Clear,160,2011-10-04 05:53:00